Regional Weather Roundup
Issued by NWS

Home | Current Version | Previous Version | Graphics & Text | Print | Product List | Glossary On
Versions: 1 2 3 4 5 6 7 8 9 10 11 12 13 14 15 16 17 18 19 20 21 22 23 24 25 26 27 28 29 30 31 32 33 34 35 36 37 38 39 40 41 42 43 44 45 46 47 48 49 50
000
ASUS43 KFSD 111610
RWRSD

WEATHER ROUNDUP FOR SOUTH DAKOTA
NATIONAL WEATHER SERVICE SIOUX FALLS SD
1000 AM CST THU FEB 11 2016

NOTE: "FAIR" INDICATES FEW OR NO CLOUDS BELOW 12,000 FEET WITH NO
SIGNIFICANT WEATHER AND/OR OBSTRUCTIONS TO VISIBILITY.


SDZ001>005-009-010-012>017-111700-
NORTHWEST AND NORTH CENTRAL SOUTH DAKOTA

CITY           SKY/WX    TMP DP  RH WIND       PRES   REMARKS
BUFFALO          N/A     35  29  78 SW6       29.90R
FAITH            N/A     29  26  89 S12       30.02R WCI  19
MOBRIDGE       LGT SNOW  23  20  88 S9        30.08R FOG     WCI  13
$$

SDZ012>016-024>037-041>051-057-063-072>074-111700-
SOUTHWEST AND SOUTH CENTRAL SOUTH DAKOTA

CITY           SKY/WX    TMP DP  RH WIND       PRES   REMARKS
RAPID CTY ARPT CLOUDY    29  28  96 CALM      30.01S
PIERRE         CLOUDY    25  22  88 SE9       30.10R WCI  15
CUSTER         PTSUNNY   45  23  42 NW17G29   30.02R
ELLSWORTH AFB  CLOUDY    30  30 100 W3        30.00
PHILIP         CLOUDY    32  28  85 SE6       30.04S WCI  26
PINE RIDGE     PTSUNNY   42  27  55 W12       30.02R
SPEARFISH      FAIR      48  27  43 W20G28    30.03R
WINNER         CLOUDY    30  24  78 S12       30.09F WCI  20
$$

SDZ004>011-016>023-039-040-111700-
NORTHEAST SOUTH DAKOTA

CITY           SKY/WX    TMP DP  RH WIND       PRES   REMARKS
ABERDEEN       LGT SNOW  18  13  80 S9        30.18F WCI   7
WATERTOWN      CLOUDY    13   7  77 S12       30.16F WCI  -1
BROOKINGS      CLOUDY    13   6  74 S12       30.20S WCI  -1
SISSETON         N/A     10   5  80 SE8       30.22F WCI  -2
$$

SDZ017-020-022-023-036>040-048>070-111700-
SOUTHEAST SOUTH DAKOTA

CITY           SKY/WX    TMP DP  RH WIND       PRES   REMARKS
SIOUX FALLS    CLOUDY    14   5  67 S8        30.25R WCI   3
HURON          CLOUDY    19  14  81 S10       30.18F WCI   7
CHAMBERLAIN    LGT SNOW  23  21  93 SE12      30.12F WCI  12
MITCHELL       CLOUDY    20  14  77 SE14      30.21F WCI   7
YANKTON        CLOUDY    18  12  79 SE13      30.26R WCI   4
$$

ABBREVIATIONS USED IN REMARKS
   TC - TEMPERATURE IN CELSIUS
  WCI - WIND CHILL INDEX
   HX - HEAT INDEX
  VSB - VISIBILITY




USA.gov is the U.S. government's official web portal to all federal, state and local government web resources and services.